Weather History for Lakeville, MN

Change the Weather History Date:

Sunday, August 11, 2013

  Actual Average Record
Temperature  
Mean Temperature 68 °F -  
Max Temperature 77 °F 80 °F 93 °F (1988)
Min Temperature 60 °F 54 °F 42 °F (1982)
Cooling Degree Days 4    
Growing Degree Days 18 (Base 50)    
Moisture  
Dew Point 61 °F    
Average Humidity 85    
Maximum Humidity 100    
Minimum Humidity 65    
Precipitation  
Precipitation 0.00 in - - ()
Sea Level Pressure  
Sea Level Pressure 30.06 in    
Wind  
Wind Speed 1 mph (East)    
Max Wind Speed 5 mph    
Max Gust Speed -    
Visibility 9 miles    
Events      
Averages and records for this station are not official NWS values.
T = Trace of Precipitation, MM = Missing Value Source: NWS Daily Summary

Daily Weather History Graph

Daily Weather History Graph

Search for Another Location

Airport:

Trip Planner

Search our weather history database for the weather conditions in past years. The results will help you decide how hot, cold, wet, or windy it might be!

Date:

Astronomy

Aug. 11, 2013 Rise Set
Actual Time 6:11 AM CDT 8:24 PM CDT
Civil Twilight 5:38 AM CDT 8:56 PM CDT
Nautical Twilight 4:59 AM CDT 9:35 PM CDT
Astronomical Twilight 4:14 AM CDT 10:19 PM CDT
Moon 11:14 AM CDT (8/11) 10:24 PM CDT (8/11)
Length of Visible Light 15h 17m
Length of Day
14h 13m
Waxing Crescent, 22% of the Moon is Illuminated
Aug 11
Waxing Crescent
Aug 14
First Quarter
Aug 20
Full
Aug 28
Last Quarter
Sep 5
New

Hourly Weather History & Observations

Time (CDT) Temp. Dew Point Humidity Pressure Visibility Wind Dir Wind Speed Gust Speed Precip Events Conditions
12:09 AM 62.6 °F 60.8 °F 94% 30.10 in 5.0 mi Calm Calm - N/A   Overcast
12:29 AM 62.6 °F 60.8 °F 94% 30.10 in 7.0 mi Calm Calm - N/A   Overcast
12:48 AM 62.6 °F 60.8 °F 94% 30.10 in 10.0 mi Calm Calm - N/A   Mostly Cloudy
1:09 AM 62.6 °F 57.2 °F 82% 30.10 in 10.0 mi SSE 3.5 mph - N/A   Mostly Cloudy
1:29 AM 62.6 °F 57.2 °F 82% 30.10 in 10.0 mi SSE 3.5 mph - N/A   Scattered Clouds
1:49 AM 62.6 °F 57.2 °F 82% 30.10 in 10.0 mi SSE 3.5 mph - N/A   Mostly Cloudy
2:09 AM 62.6 °F 57.2 °F 82% 30.10 in 10.0 mi Calm Calm - N/A   Overcast
2:29 AM 62.6 °F 57.2 °F 82% 30.10 in 10.0 mi Calm Calm - N/A   Overcast
2:49 AM 62.6 °F 57.2 °F 82% 30.09 in 10.0 mi Calm Calm - N/A   Overcast
3:09 AM 62.6 °F 59.0 °F 88% 30.09 in 10.0 mi Calm Calm - N/A   Overcast
3:28 AM 62.6 °F 57.2 °F 82% 30.09 in 10.0 mi Calm Calm - N/A   Overcast
3:49 AM 62.6 °F 57.2 °F 82% 30.09 in 10.0 mi Calm Calm - N/A   Overcast
4:09 AM 62.6 °F 57.2 °F 82% 30.09 in 10.0 mi SSE 4.6 mph - N/A   Overcast
4:28 AM 60.8 °F 57.2 °F 88% 30.08 in 10.0 mi SSE 4.6 mph - N/A   Overcast
4:49 AM 60.8 °F 57.2 °F 88% 30.08 in 10.0 mi Calm Calm - N/A   Overcast
5:09 AM 60.8 °F 59.0 °F 94% 30.08 in 10.0 mi Calm Calm - N/A   Overcast
5:28 AM 60.8 °F 59.0 °F 94% 30.08 in 10.0 mi Calm Calm - N/A   Overcast
5:49 AM 60.8 °F 59.0 °F 94% 30.08 in 10.0 mi Calm Calm - N/A   Overcast
6:09 AM 60.8 °F 59.0 °F 94% 30.08 in 10.0 mi Calm Calm - N/A   Overcast
6:28 AM 60.8 °F 59.0 °F 94% 30.07 in 10.0 mi Calm Calm - N/A   Overcast
6:49 AM 60.8 °F 59.0 °F 94% 30.06 in 10.0 mi East 3.5 mph - N/A   Overcast
7:09 AM 60.8 °F 60.8 °F 100% 30.05 in 10.0 mi East 4.6 mph - N/A   Overcast
7:28 AM 60.8 °F 60.8 °F 100% 30.07 in 10.0 mi East 4.6 mph - N/A   Overcast
7:49 AM 62.6 °F 60.8 °F 94% 30.07 in 10.0 mi East 4.6 mph - N/A   Overcast
8:09 AM 62.6 °F 60.8 °F 94% 30.08 in 10.0 mi Calm Calm - N/A   Overcast
8:28 AM 62.6 °F 60.8 °F 94% 30.07 in 10.0 mi East 4.6 mph - N/A   Overcast
8:49 AM 62.6 °F 60.8 °F 94% 30.08 in 10.0 mi ESE 3.5 mph - N/A   Overcast
9:09 AM 62.6 °F 60.8 °F 94% 30.08 in 10.0 mi Calm Calm - N/A   Overcast
9:29 AM 62.6 °F 60.8 °F 94% 30.08 in 10.0 mi Calm Calm - N/A   Overcast
9:49 AM 64.4 °F 60.8 °F 88% 30.08 in 10.0 mi Calm Calm - N/A   Overcast
10:09 AM 64.4 °F 62.6 °F 94% 30.08 in 10.0 mi Calm Calm - N/A   Overcast
10:29 AM 64.4 °F 62.6 °F 94% 30.08 in 10.0 mi Calm Calm - N/A   Overcast
10:49 AM 64.4 °F 62.6 °F 94% 30.08 in 10.0 mi Calm Calm - N/A   Overcast
11:08 AM 64.4 °F 62.6 °F 94% 30.08 in 10.0 mi Calm Calm - N/A   Overcast
11:29 AM 66.2 °F 62.6 °F 88% 30.08 in 10.0 mi Calm Calm - N/A   Overcast
11:49 AM 66.2 °F 62.6 °F 88% 30.07 in 10.0 mi Calm Calm - N/A   Overcast
12:08 PM 66.2 °F 62.6 °F 88% 30.07 in 10.0 mi Calm Calm - N/A   Overcast
12:29 PM 69.8 °F 64.4 °F 83% 30.07 in 10.0 mi Calm Calm - N/A   Mostly Cloudy
12:49 PM 71.6 °F 64.4 °F 78% 30.07 in 10.0 mi Calm Calm - N/A   Overcast
1:08 PM 71.6 °F 62.6 °F 73% 30.06 in 10.0 mi NNW 3.5 mph - N/A   Overcast
1:29 PM 73.4 °F 62.6 °F 69% 30.06 in 10.0 mi NE 4.6 mph - N/A   Scattered Clouds
1:49 PM 71.6 °F 62.6 °F 73% 30.06 in 10.0 mi Calm Calm - N/A   Scattered Clouds
2:08 PM 73.4 °F 62.6 °F 69% 30.06 in 10.0 mi Calm Calm - N/A   Mostly Cloudy
2:29 PM 73.4 °F 62.6 °F 69% 30.06 in 10.0 mi Calm Calm - N/A   Mostly Cloudy
2:49 PM 75.2 °F 62.6 °F 65% 30.05 in 10.0 mi Calm Calm - N/A   Mostly Cloudy
3:08 PM 73.4 °F 62.6 °F 69% 30.05 in 10.0 mi Calm Calm - N/A   Scattered Clouds
3:29 PM 75.2 °F 62.6 °F 65% 30.05 in 10.0 mi Calm Calm - N/A   Scattered Clouds
3:49 PM 77.0 °F 64.4 °F 65% 30.04 in 10.0 mi NE 4.6 mph - N/A   Mostly Cloudy
4:08 PM 75.2 °F 62.6 °F 65% 30.04 in 10.0 mi East 3.5 mph - N/A   Overcast
4:29 PM 73.4 °F 62.6 °F 69% 30.04 in 10.0 mi Calm Calm - N/A   Scattered Clouds
4:49 PM 75.2 °F 62.6 °F 65% 30.04 in 10.0 mi Calm Calm - N/A   Clear
5:08 PM 75.2 °F 62.6 °F 65% 30.03 in 10.0 mi ESE 4.6 mph - N/A   Clear
5:29 PM 75.2 °F 62.6 °F 65% 30.03 in 10.0 mi Calm Calm - N/A   Scattered Clouds
5:49 PM 73.4 °F 62.6 °F 69% 30.02 in 10.0 mi Calm Calm - N/A   Scattered Clouds
6:08 PM 73.4 °F 64.4 °F 73% 30.02 in 7.0 mi ESE 3.5 mph - N/A   Scattered Clouds
6:29 PM 73.4 °F 64.4 °F 73% 30.02 in 10.0 mi NE 4.6 mph - N/A   Overcast
6:49 PM 71.6 °F 64.4 °F 78% 30.02 in 10.0 mi ENE 4.6 mph - N/A   Mostly Cloudy
7:08 PM 71.6 °F 64.4 °F 78% 30.01 in 10.0 mi East 4.6 mph - N/A   Scattered Clouds
7:29 PM 71.6 °F 64.4 °F 78% 30.01 in 10.0 mi Calm Calm - N/A   Clear
7:49 PM 69.8 °F 64.4 °F 83% 30.02 in 3.0 mi Calm Calm - N/A   Haze
8:08 PM 69.8 °F 64.4 °F 83% 30.02 in 7.0 mi Calm Calm - N/A   Scattered Clouds
8:29 PM 68.0 °F 64.4 °F 88% 30.02 in 10.0 mi Calm Calm - N/A   Clear
8:48 PM 64.4 °F 62.6 °F 94% 30.02 in 10.0 mi Calm Calm - N/A   Clear
9:09 PM 64.4 °F 62.6 °F 94% 30.02 in 10.0 mi Calm Calm - N/A   Clear
9:29 PM 64.4 °F 62.6 °F 94% 30.03 in 10.0 mi Calm Calm - N/A   Clear
9:48 PM 64.4 °F 62.6 °F 94% 30.03 in 10.0 mi Calm Calm - N/A   Clear
10:09 PM 62.6 °F 60.8 °F 94% 30.03 in 5.0 mi Calm Calm - N/A   Clear
10:29 PM 62.6 °F 60.8 °F 94% 30.04 in 7.0 mi Calm Calm - N/A   Clear
10:48 PM 62.6 °F 62.6 °F 100% 30.04 in 5.0 mi Calm Calm - N/A   Clear
11:09 PM 62.6 °F 62.6 °F 100% 30.03 in 7.0 mi Calm Calm - N/A   Clear
11:29 PM 62.6 °F 62.6 °F 100% 30.03 in 5.0 mi Calm Calm - N/A   Clear
11:48 PM 62.6 °F 62.6 °F 100% 30.03 in 7.0 mi Calm Calm - N/A   Clear